Kosmos-1637

operational
NORAD ID: 15619 Int'l Des: 1985-023 Owner: GUKOS Country: SU
LEOCIRCULAR

About Kosmos-1637

Description loading...

Live Position

Loading 3D Globe...

Upcoming Passes

Altitude History

Altitude vs Time

uPlot chart will show altitude changes over time

Two-Line Element Set

1 15619U 85023C 26061.00499502 .00000003 00000-0 12795-3 0 9994
2 15619 74.0517 250.9227 0014587 92.4512 25.4671 12.47242454864416
Epoch: Mar 2, 2026 • Age: 38 hours

Current Status

Altitude 1473.4 km
Velocity 7.13 km/s
Sub-Earth Point 33.12°N, 114.44°W
Launch Date Mar 21, 1985
Age 40.9 years
Type other

Technical Details

Classification Payload
Mass 60.00 kg
Dry Mass 60.00 kg
Total Mass 60.00 kg
Length 0.80 m
Diameter 0.80 m
Span 0.80 m
Shape Poly
Manufacturer NPOPM
Bus Type Strela-1 11F625
Phase Status In Orbit
Owner/State GUKOS/SU

Large Constellations

Loading constellations...